[[{"header":{"parameterUnit":"m.s-1","parameterCategory":1,"la1":30.2991,"la2":30.254,"lo1":-89.0895,"lo2":-89.0444,"dy":0.0017,"dx":0.0017,"nx":28,"ny":28,"refTime":"2024-12-12T03:00:00:Z","depth":0,"parameterNumber":2,"parameterNumberName":"U-component_of_WINDS"},"data":[0,0,0,0,0,0,0,0,0,0,0,0,0,0,0,0,0,0,0,0,0,0,0,0,0,0,0,0,0,0,0,0,0,0,0,0,0,0,0,0,0,0,0,0,0,0,0,0,0,0,0,0,0,0,0,0,0,0,-5.6808,-5.6809,0,-5.686,-5.686,-5.6861,-5.6684,-5.6678,-5.6673,-5.6668,-5.6725,-5.6731,-5.6737,0,0,0,0,0,0,0,0,0,0,0,0,0,-5.656,-5.6565,-5.6808,-5.6809,-5.6809,-5.6859,-5.686,-5.6861,-5.6685,-5.6678,-5.6672,-5.6665,-5.6723,-5.673,-5.6738,0,0,0,0,0,0,0,0,0,0,0,0,0,-5.6645,-5.6567,-5.6808,-5.6727,-5.6721,-5.6859,-5.686,-5.6861,-5.6686,-5.6678,-5.667,-5.6662,-5.672,-5.6729,-5.6739,-5.6959,0,0,-5.6769,-5.6773,0,0,0,0,0,0,0,0,-5.6641,-5.6655,-5.6738,-5.6733,-5.6726,-5.6757,-5.6793,-5.6894,-5.6688,-5.6699,-5.6668,-5.6659,-5.6742,-5.675,-5.6777,-5.6962,-5.6964,-5.677,-5.6776,-5.678,-5.6782,0,0,0,0,0,0,0,-5.6635,-5.6651,-5.6828,-5.674,-5.6732,-5.6689,-5.6693,-5.6812,-5.6765,-5.6698,-5.6685,-5.6693,-5.6737,-5.6768,-5.6777,-5.6965,-5.6769,-5.6778,-5.6784,-5.6788,-5.7333,-5.7341,0,0,0,0,0,0,-5.6639,-5.6648,-5.6827,-5.683,-5.6662,-5.67,-5.6704,-5.6755,-5.6763,-5.6757,-5.67,-5.6685,-5.6755,-5.6766,-5.6778,-5.7037,-5.678,-5.6789,-5.6794,-5.7325,-5.7335,-5.7344,0,0,0,0,0,0,-5.6634,-5.6657,-5.6825,-5.6735,-5.6753,-5.6713,-5.6772,-5.676,-5.6791,-5.6765,-5.6756,-5.674,-5.6749,-5.6765,-5.6915,-5.7036,-5.6793,-5.6802,-5.7314,-5.7328,-5.734,-5.7556,0,0,0,0,0,0,-5.6628,-5.6656,-5.6739,-5.6738,-5.6759,-5.6961,-5.6779,-5.6767,-5.6808,-5.6788,-5.68,-5.6794,-5.6744,-5.6902,-5.6925,-5.7045,-5.681,-5.7303,-5.732,-5.7336,-5.7538,-5.7575,-5.7606,0,0,0,0,0,-5.662,-5.6799,-5.6744,-5.6767,-5.6861,-5.6968,-5.698,-5.6917,-5.6818,-5.6901,-5.6884,-5.6794,-5.7019,-5.6919,-5.6943,-5.7069,-5.7295,-5.7316,-5.7334,-5.7523,-5.7568,-5.7606,0,0,0,0,0,0,-5.6816,-5.6797,-5.6736,-5.692,-5.6947,-5.6938,-5.7041,-5.6967,-5.7024,-5.7003,-5.6924,-5.6929,-5.7094,-5.7095,-5.6984,-5.7282,-5.714,-5.7166,-5.7275,-5.7317,-5.7351,-5.7348,-5.6818,0,0,0,0,0,-5.6881,-5.6968,-5.6947,-5.7111,-5.7127,-5.7083,-5.7127,-5.7076,-5.7101,-5.7112,-5.7106,-5.7135,-5.7211,-5.7264,-5.7333,-5.7536,-5.7537,-5.7635,-5.7669,-5.7697,-5.7721,-5.7829,-5.7872,-5.7408,-5.7408,-5.7408,0,0,-5.7015,-5.7015,-5.7076,-5.7151,-5.7165,-5.7258,-5.7093,-5.7199,-5.7267,-5.7128,-5.727,-5.7267,-5.7294,-5.7472,-5.755,-5.7478,-5.7848,-5.7722,-5.7745,-5.7753,-5.7853,-5.7897,-5.7936,-5.7422,-5.7419,-5.7417,0,0,-5.7308,-5.7317,-5.7455,-5.7472,-5.7496,-5.7465,-5.7498,-5.75,-5.7492,-5.7633,-5.753,-5.7611,-5.7745,-5.7768,-5.7798,-5.8099,-5.8018,-5.8123,-5.8303,-5.8409,-5.8446,-5.8478,-5.8586,-5.8626,-5.8146,-5.8147,-5.8147,0,-5.7473,-5.7608,-5.7535,-5.7648,-5.7684,-5.756,-5.77,-5.7721,-5.7767,-5.7795,-5.7714,-5.7879,-5.7889,-5.8071,-5.8144,-5.8171,-5.8208,-5.8123,-5.8446,-5.8478,-5.8506,-5.8609,-5.865,-5.816,-5.8158,-5.8157,-5.8156,0,-5.781,-5.7905,-5.8014,-5.806,-5.8108,-5.8234,-5.8181,-5.8239,-5.8184,-5.8161,-5.8306,-5.8313,-5.8381,-5.842,-5.8368,-5.8595,-5.855,-5.8459,-5.8315,-5.8565,-5.866,-5.8698,-5.8178,-5.8174,-5.817,-5.8167,0,0,-5.823,-5.8233,-5.8274,-5.8294,-5.831,-5.8383,-5.8503,-5.8568,-5.862,-5.8656,-5.8755,-5.8871,-5.8786,-5.882,-5.8769,-5.8862,-5.9101,-5.8759,-5.8758,-5.8823,-5.9353,-5.9422,-5.9469,-5.9046,-5.9053,-5.9059,-5.9351,0,-5.8519,-5.8723,-5.8661,-5.8867,-5.8955,-5.8838,-5.8942,-5.8964,-5.8947,-5.9019,-5.8998,-5.9082,-5.8964,-5.8983,-5.907,-5.9054,-5.9206,-5.9031,-5.914,-5.9145,-5.9138,-5.9518,-5.9593,-5.9868,-5.9387,-5.9393,-5.9398,0,-5.8884,-5.8932,-5.9148,-5.9149,-5.9183,-5.9278,-5.9333,-5.9403,-5.9426,-5.9406,-5.9444,-5.9373,-5.9492,-5.9346,-5.9509,-5.9392,-5.9432,-5.943,-5.9439,-5.9449,-5.9288,-5.954,-5.9953,-5.9996,-5.9456,-5.9451,-5.9447,0,-5.917,-5.9289,-5.9433,-5.9453,-5.9458,-5.9528,-5.9533,-5.9548,-5.9591,-5.9639,-5.9666,-5.9729,-5.9763,-5.9813,-5.9762,-5.966,-5.9933,-5.9783,-5.9921,-5.9923,-5.9986,-5.9983,-6.0414,-6.001,-6.0009,-6.0008,-6.0007,0,-5.95,-5.9637,-5.9562,-5.9651,-5.9801,-5.9727,-5.9878,-5.987,-5.9883,-5.9969,-5.9872,-5.9955,-5.9881,-5.9957,-5.9918,-6.0059,-6.0075,-6.0064,-6.0052,-6.0074,-6.0076,-6.01,-6.0081,-6.0019,-6.0017,-6.0015,-6.0013,0,-5.9847,-5.9802,-5.9951,-5.9943,-5.9944,-6.0055,-6.0048,-6.013,-6.0104,-6.0214,-6.0236,-6.0196,-6.0281,-6.0234,-6.0322,-6.0295,-6.0479,-6.044,-6.0472,-6.0462,-6.0603,-6.0591,-6.1067,-6.1126,-6.0683,-6.0687,-6.069,0,-6.0061,-6.0163,-6.0165,-6.0215,-6.0227,-6.0309,-6.0352,-6.0283,-6.0332,-6.0365,-6.0444,-6.052,-6.0578,-6.0719,-6.0699,-6.0766,-6.0729,-6.0891,-6.0739,-6.0757,-6.0733,-6.0728,-6.0739,-6.0923,-6.0928,-6.0932,-6.0935,0,-6.0447,-6.042,-6.0485,-6.0543,-6.0597,-6.064,-6.0675,-6.0721,-6.0653,-6.0713,-6.0798,-6.0843,-6.0931,-6.1009,-6.1066,-6.1072,-6.0994,-6.0983,-6.1019,-6.1043,-6.1057,-6.1053,-6.0557,-6.0973,-6.0969,-6.0967,-6.0965,-6.0963,-6.0735,-6.082,-6.0835,-6.0911,-6.0929,-6.0964,-6.1041,-6.1024,-6.1093,-6.1159,-6.1114,-6.1215,-6.1234,-6.1302,-6.1319,-6.1397,-6.1332,-6.1384,-6.1397,-6.1412,-6.1431,-6.1043,-6.1407,-6.1406,-6.1405,-6.1404,-6.1403,0,-6.1117,-6.112,-6.119,-6.1241,-6.1302,-6.122,-6.1254,-6.131,-6.14,-6.1423,-6.1481,-6.158,-6.1654,-6.1639,-6.1706,-6.1772,-6.1738,-6.1792,-6.1788,-6.1791,-6.1485,-6.1448,-6.1819,-6.1819,-6.1819,-6.1818,-6.1818,-6.1818,-6.1323,-6.1463,-6.1437,-6.1585,-6.1587,-6.1684,-6.1711,-6.1742,-6.1761,-6.1874,-6.1935,-6.1924,-6.1933,-6.2,-6.2064,-6.2058,-6.2088,-6.2156,-6.2138,-6.1853,-6.1812,-6.1773,-6.1738,-6.2163,-6.2164,-6.2436,-6.2439,-6.2441]},{"header":{"parameterUnit":"m.s-1","parameterCategory":1,"la1":30.2991,"la2":30.254,"lo1":-89.0895,"lo2":-89.0444,"dy":0.0017,"dx":0.0017,"nx":28,"ny":28,"refTime":"2024-12-12T03:00:00:Z","depth":0,"parameterNumber":3,"parameterNumberName":"V-component_of_WINDS"},"data":[0,0,0,0,0,0,0,0,0,0,0,0,0,0,0,0,0,0,0,0,0,0,0,0,0,0,0,0,0,0,0,0,0,0,0,0,0,0,0,0,0,0,0,0,0,0,0,0,0,0,0,0,0,0,0,0,0,0,-1.9611,-1.961,0,-1.9548,-1.9547,-1.9547,-1.95,-1.95,-1.9499,-1.9499,-1.9434,-1.9433,-1.9432,0,0,0,0,0,0,0,0,0,0,0,0,0,-1.9688,-1.9686,-1.9611,-1.961,-1.9609,-1.9548,-1.9547,-1.9546,-1.95,-1.95,-1.9499,-1.9499,-1.9435,-1.9433,-1.9432,0,0,0,0,0,0,0,0,0,0,0,0,0,-1.9643,-1.9686,-1.9611,-1.9579,-1.9575,-1.9548,-1.9547,-1.9546,-1.95,-1.95,-1.9499,-1.9499,-1.9435,-1.9433,-1.9431,-1.9431,0,0,-1.9425,-1.9424,0,0,0,0,0,0,0,0,-1.9645,-1.964,-1.9584,-1.9581,-1.9577,-1.9531,-1.9551,-1.9508,-1.95,-1.9529,-1.9499,-1.9498,-1.9467,-1.9462,-1.9452,-1.9428,-1.9425,-1.9425,-1.9424,-1.9423,-1.9422,0,0,0,0,0,0,0,-1.9648,-1.9642,-1.9586,-1.9583,-1.9579,-1.9567,-1.9559,-1.9542,-1.9502,-1.9526,-1.9523,-1.9516,-1.9465,-1.9454,-1.945,-1.9424,-1.9425,-1.9423,-1.9422,-1.9421,-1.9393,-1.9394,0,0,0,0,0,0,-1.9657,-1.9645,-1.9588,-1.9584,-1.961,-1.9566,-1.9558,-1.9547,-1.9502,-1.9495,-1.9517,-1.9514,-1.9458,-1.9453,-1.9448,-1.9442,-1.9423,-1.9421,-1.942,-1.9393,-1.9393,-1.9394,0,0,0,0,0,0,-1.9659,-1.9652,-1.959,-1.9613,-1.9605,-1.9565,-1.9553,-1.9546,-1.9535,-1.9495,-1.9487,-1.9513,-1.9457,-1.945,-1.9435,-1.9439,-1.942,-1.9418,-1.9392,-1.9393,-1.9394,-1.9433,0,0,0,0,0,0,-1.9661,-1.9653,-1.9653,-1.9614,-1.9604,-1.958,-1.9553,-1.9545,-1.9531,-1.9527,-1.9489,-1.9483,-1.9456,-1.9438,-1.9433,-1.9436,-1.9417,-1.9392,-1.9393,-1.9393,-1.9431,-1.9435,-1.9438,0,0,0,0,0,-1.9664,-1.9667,-1.9654,-1.9647,-1.9603,-1.958,-1.9574,-1.9544,-1.9532,-1.9531,-1.9505,-1.9484,-1.944,-1.9437,-1.9431,-1.9433,-1.9391,-1.9392,-1.9393,-1.9429,-1.9434,-1.9438,0,0,0,0,0,0,-1.9709,-1.9662,-1.9646,-1.9637,-1.9613,-1.9572,-1.9571,-1.955,-1.9529,-1.9526,-1.9489,-1.9481,-1.9468,-1.9449,-1.9447,-1.9429,-1.9413,-1.9412,-1.9442,-1.9446,-1.945,-1.9454,-1.9415,0,0,0,0,0,-1.9718,-1.9703,-1.9663,-1.9658,-1.9647,-1.9611,-1.96,-1.9578,-1.9551,-1.9541,-1.9514,-1.9488,-1.9468,-1.9456,-1.9436,-1.9428,-1.9417,-1.9426,-1.943,-1.9433,-1.9433,-1.9424,-1.9427,-1.9397,-1.9397,-1.9397,0,0,-1.9736,-1.9708,-1.9702,-1.9667,-1.9645,-1.963,-1.9603,-1.9588,-1.9576,-1.9539,-1.9522,-1.9501,-1.947,-1.9457,-1.945,-1.9441,-1.9439,-1.9434,-1.9437,-1.9435,-1.9426,-1.9429,-1.9431,-1.9398,-1.9398,-1.9398,0,0,-1.9761,-1.9739,-1.9732,-1.9711,-1.9679,-1.9654,-1.9653,-1.9615,-1.9599,-1.9581,-1.9552,-1.9536,-1.9504,-1.9482,-1.9467,-1.948,-1.9459,-1.9475,-1.9493,-1.9485,-1.9487,-1.9489,-1.9492,-1.9494,-1.9475,-1.9475,-1.9475,0,-1.9787,-1.9764,-1.9731,-1.9718,-1.9702,-1.9667,-1.9659,-1.964,-1.9602,-1.9592,-1.9582,-1.9538,-1.9515,-1.9495,-1.9498,-1.9488,-1.9483,-1.9479,-1.949,-1.9491,-1.9492,-1.9495,-1.9496,-1.9477,-1.9477,-1.9477,-1.9476,0,-1.9797,-1.9781,-1.9779,-1.9743,-1.9727,-1.9717,-1.9681,-1.9669,-1.9648,-1.9624,-1.9605,-1.9576,-1.9547,-1.9541,-1.9521,-1.9518,-1.9513,-1.9497,-1.948,-1.9498,-1.9499,-1.95,-1.948,-1.9479,-1.9479,-1.9478,0,0,-1.985,-1.9794,-1.9794,-1.9776,-1.9737,-1.9723,-1.971,-1.9682,-1.9671,-1.9646,-1.9633,-1.9604,-1.9588,-1.9571,-1.9548,-1.9541,-1.9551,-1.9526,-1.9524,-1.953,-1.9542,-1.9554,-1.9556,-1.9536,-1.9537,-1.9537,-1.9544,0,-1.9867,-1.9842,-1.9811,-1.9796,-1.9779,-1.9744,-1.9732,-1.9706,-1.9682,-1.9664,-1.9638,-1.9617,-1.9599,-1.9588,-1.958,-1.9552,-1.9553,-1.9551,-1.9522,-1.9522,-1.953,-1.9557,-1.957,-1.9579,-1.9545,-1.9545,-1.9545,0,-1.9885,-1.9861,-1.9844,-1.9803,-1.9795,-1.9785,-1.9756,-1.9739,-1.9708,-1.9691,-1.967,-1.9645,-1.9627,-1.9612,-1.9585,-1.9585,-1.9571,-1.9555,-1.9554,-1.955,-1.9534,-1.9552,-1.9581,-1.9582,-1.9546,-1.9546,-1.9546,0,-1.9923,-1.9886,-1.987,-1.9857,-1.981,-1.9803,-1.9783,-1.9751,-1.9735,-1.9709,-1.9698,-1.9671,-1.9655,-1.9634,-1.9601,-1.9593,-1.9577,-1.956,-1.9561,-1.9562,-1.9559,-1.956,-1.9585,-1.9552,-1.9552,-1.9552,-1.9552,0,-1.9945,-1.9936,-1.9886,-1.9877,-1.9864,-1.9828,-1.9816,-1.9793,-1.9764,-1.9748,-1.9716,-1.9702,-1.966,-1.9639,-1.9613,-1.9594,-1.9588,-1.9573,-1.9566,-1.9575,-1.9577,-1.9565,-1.9563,-1.9553,-1.9552,-1.9552,-1.9552,0,-1.9986,-1.9953,-1.9933,-1.9889,-1.9878,-1.9871,-1.9833,-1.9821,-1.9795,-1.9775,-1.9768,-1.9727,-1.9702,-1.9667,-1.9631,-1.9613,-1.9596,-1.9586,-1.9607,-1.9603,-1.9606,-1.9605,-1.9624,-1.9624,-1.9592,-1.9593,-1.9593,0,-2.0002,-1.9993,-1.9949,-1.9936,-1.9917,-1.9896,-1.988,-1.9843,-1.9827,-1.9789,-1.9781,-1.9753,-1.9728,-1.9689,-1.9655,-1.9626,-1.9614,-1.9623,-1.961,-1.9619,-1.9612,-1.9613,-1.9611,-1.9626,-1.9626,-1.9627,-1.9627,0,-2.0033,-2.0016,-1.9994,-1.9965,-1.9947,-1.9922,-1.9896,-1.9887,-1.9844,-1.9827,-1.9801,-1.9782,-1.9743,-1.9715,-1.9682,-1.9659,-1.9635,-1.9631,-1.963,-1.9639,-1.9651,-1.9643,-1.9614,-1.9631,-1.9631,-1.963,-1.963,-1.963,-2.006,-2.005,-2.0017,-1.9992,-1.9969,-1.9945,-1.9931,-1.9903,-1.988,-1.9846,-1.9826,-1.9799,-1.9765,-1.9717,-1.9696,-1.9674,-1.9664,-1.9663,-1.9662,-1.9662,-1.9664,-1.9655,-1.9668,-1.9667,-1.9667,-1.9667,-1.9667,0,-2.0089,-2.0065,-2.0043,-2.0007,-1.9987,-1.9967,-1.9936,-1.992,-1.9898,-1.9868,-1.9844,-1.9812,-1.9784,-1.9747,-1.9716,-1.9705,-1.9693,-1.9698,-1.9698,-1.9692,-1.9675,-1.9679,-1.9708,-1.9708,-1.9708,-1.9708,-1.9708,-1.9708,-2.0101,-2.0082,-2.0061,-2.003,-2.0006,-1.998,-1.9964,-1.9941,-1.9917,-1.9882,-1.9859,-1.9835,-1.9802,-1.9767,-1.974,-1.9729,-1.9719,-1.9727,-1.9713,-1.9698,-1.9694,-1.9691,-1.9694,-1.9725,-1.9725,-1.9732,-1.9732,-1.9732]}]]